Tracking 28790 objects as of 18-Apr-2024
HD Live streaming from Space Station
objects crossing your sky now

IRIDIUM 151

Track IRIDIUM 151 now!
10-day predictions
IRIDIUM 151 is classified as:


NORAD ID: 43074
Int'l Code: 2017-083E
Perigee: 783.3 km
Apogee: 786.3 km
Inclination: 86.4 °
Period: 100.4 minutes
Semi major axis: 7155 km
RCS: Unknown
Launch date: December 23, 2017
Source: United States (US)
Launch site: AIR FORCE WESTERN TEST RANGE (AFWTR)
Your satellite tracking list
Your tracking list is empty




NASA's NSSDC Master Catalog

Two Line Element Set (TLE):
1 43074U 17083E   24109.86666816  .00000324  00000-0  10879-3 0  9997
2 43074  86.3916 291.9210 0002105 102.1797 257.9635 14.34220181331002
Source of the keplerian elements: AFSPC